Flag for Namibia Weather past 2 weeks in Windhoek, Namibia

Now
57 °F

Refreshingly cool.


Feels Like: 57 °F
Forecast: 45 / 79 °F
Wind: 3 mph from East

Location: Windhoek

Current Time: Aug 31, 2015 at 2:12:25 AM

Latest Report: Aug 31, 2015 at 1:00 AM


Visibility: N/A

Pressure: 30.18 "Hg (24.71 "Hg at 1680m altitude)

Humidity: 41%

Dew point: 34 °F

Location of WindhoekLocation

Historic Weather in Windhoek — Graph

°F

Windhoek temperature yesterday

Maximum temperature yesterday: 82 °F (at 12:00 PM)
Minimum temperature yesterday: 63 °F (at 6:00 AM)
Average temperature yesterday: 71 °F

Past Weeks' High & Low Weather Summary

 TemperatureHumidityPressure
High86 °F (Aug 21, 1:00 PM)72% (Aug 25, 5:00 AM)30.39 "Hg (Aug 25, 5:00 AM)
Low54 °F (Aug 18, 6:00 AM)4% (Aug 20, 10:00 AM)30.07 "Hg (Aug 22, 2:00 PM)
Average70 °F24%30.20 "Hg
* Reported Aug 16 4:00 AM — Midnight between Aug 30 and Aug 31, Windhoek, Weather by CustomWeather, © 2015

Note: Actual official high and low records may vary slightly from our data, if they occured in-between our weather recording intervals... More about our weather records

Advertising

Windhoek weather history for previous 24 hours

 ConditionsComfort  
Time TempWeatherWind HumidityBarometerVisibility
12:00 AM
Mon, Aug 31
61 °FRefreshingly cool.1 mph42%30.24 "HgN/A
11:00 PM
Sun, Aug 30
63 °FMild.3 mph37%30.24 "HgN/A
10:00 PM64 °FMild.3 mph30%30.21 "HgN/A
9:00 PM66 °FMild.2 mph28%30.21 "HgN/A
7:00 PM73 °FClear.5 mph23%30.18 "Hg10 mi
6:00 PM73 °FClear.No wind23%30.15 "Hg10 mi
5:00 PM77 °FClear.9 mph21%30.12 "Hg10 mi
4:00 PM81 °FSunny.12 mph17%30.12 "Hg10 mi
3:00 PM82 °FSunny.12 mph15%30.12 "Hg10 mi
1:00 PM82 °FSunny.13 mph15%30.18 "Hg10 mi
12:00 PM82 °FSunny.9 mph17%30.18 "Hg10 mi
11:00 AM79 °FSunny.12 mph20%30.24 "Hg10 mi
10:00 AM75 °FSunny.10 mph21%30.24 "Hg10 mi
9:00 AM70 °FSunny.No wind23%30.27 "Hg10 mi
8:00 AM66 °FSunny.No wind22%30.24 "Hg10 mi
7:00 AM63 °FSunny.No wind25%30.24 "Hg10 mi
6:00 AM63 °FSunny.3 mph25%30.21 "Hg10 mi
5:00 AM64 °FClear.5 mph22%30.21 "Hg10 mi
4:00 AM66 °FClear.6 mph21%30.18 "Hg10 mi
3:00 AM66 °FMild.8 mph22%30.18 "HgN/A
2:00 AM70 °FMild.5 mph20%30.21 "HgN/A
Weather by CustomWeather, © 2015

See weather overviewHow to use our weather pages